Content
SEND FEEDBACK

Daily
Averages
Monthly
Summary
Russia

SOCHI, RUSSIA


Home > Europe > Russia
Elevation: 52 feet     Latitude: 43 27N     Longitude: 039 54E

WEATHER
 
SELECT A DAY
Number of Records: 206,454;   Date Range: 3/24/97 - 10/21/14
 
SHARE

PRINT THIS DATA

[ ← Previous Day ]
WEATHER ALMANAC - JANUARY 31, 2013
[ Next Day → ]
[ °C ]   °F
Weather ElementAverageHighLow
Temperature43.6 °F48.2 °F (4:00 pm)39.2 °F (4:30 am)
Dewpoint35.7 °F40 °F (1:00 am)28.4 °F (3:30 pm)
Humidity74.3 %94 % (1:00 am)37 % (4:00 pm)
Barometer29.89 in29.99 in (1:00 am)29.80 in (8:30 pm)
Wind Speed5.8 mph15.7 mph (3:30 pm)
Wind Gust22.4 mph (5:30 pm)
Weather ElementAverage
Visibility6 mi
Wind DirectionSSW (209.6 °)

Weather ElementTotal
Precipitation---
Heating Degree Days21.3 (Base 65)
Averaged from 55 records on January 31, 2013
WEATHER CONDITIONS BREAKOUT
WIND DIRECTION BREAKOUT
WEATHER BY HOUR - JANUARY 31, 2013
[ °C ]   °F
Local TimeTemperatureDewpointHumidityBarometerVisibilityWind DirectionWind SpeedGust SpeedPrecipitationEventsConditions
12:30 AM41.0 °F39.2 °F93 %29.98 in6.2 miCalmOvercast
1:00 AM41.0 °F40.0 °F94 %29.99 in2.0 miENE (70°)2.2 mphPartly Cloudy
1:00 AM41.0 °F39.2 °F93 %29.98 in6.2 miEast (90°)4.5 mphOvercast
1:30 AM41.0 °F39.2 °F93 %29.98 in6.2 miCalmOvercast
2:00 AM41.0 °F39.2 °F93 %29.95 in6.2 miCalmOvercast
2:30 AM41.0 °F39.2 °F93 %29.95 in6.2 miCalmOvercast
3:00 AM41.0 °F39.2 °F93 %29.95 in6.2 miCalmOvercast
3:30 AM41.0 °F37.4 °F87 %29.95 in6.2 miNorth (10°)2.2 mphOvercast
4:00 AM41.0 °F38.0 °F85 %29.97 in2.0 miNNE (20°)2.2 mphPartly Cloudy
4:00 AM41.0 °F39.2 °F93 %29.95 in6.2 miCalmOvercast
4:30 AM39.2 °F37.4 °F93 %29.95 in6.2 miNorth (350°)4.5 mphOvercast
5:00 AM41.0 °F37.4 °F87 %29.95 in6.2 miNNE (30°)2.2 mphOvercast
5:30 AM41.0 °F37.4 °F87 %29.95 in6.2 miNorth (350°)2.2 mphOvercast
6:00 AM41.0 °F37.4 °F87 %29.92 in6.2 miNorth (350°)4.5 mphOvercast
6:30 AM41.0 °F37.4 °F87 %29.92 in6.2 miCalmOvercast
7:00 AM40.0 °F38.0 °F92 %29.95 in2.0 miNNE (30°)2.2 mphOvercast
7:00 AM41.0 °F37.4 °F87 %29.92 in6.2 miCalmOvercast
7:30 AM41.0 °F37.4 °F87 %29.92 in6.2 miENE (60°)2.2 mphOvercast
8:00 AM39.2 °F37.4 °F93 %29.92 in6.2 miNorth (350°)2.2 mphOvercast
8:30 AM41.0 °F37.4 °F87 %29.92 in6.2 miCalmOvercast
9:00 AM41.0 °F37.4 °F87 %29.92 in6.2 miNorth (10°)4.5 mphOvercast
9:30 AM41.0 °F37.4 °F87 %29.92 in6.2 miCalmOvercast
10:00 AM41.0 °F39.0 °F92 %29.93 in12.0 miENE (60°)2.2 mphScattered Clouds
10:00 AM41.0 °F39.2 °F93 %29.92 in6.2 miCalmMostly Cloudy
10:30 AM42.8 °F37.4 °F81 %29.92 in6.2 miNNW (330°)2.2 mphMostly Cloudy
11:00 AM44.6 °F35.6 °F71 %29.89 in6.2 miNNW (340°)6.7 mph13.4 mphMostly Cloudy
11:30 AM44.6 °F37.4 °F76 %29.89 in6.2 miNorth (350°)2.2 mphMostly Cloudy
12:00 PM46.4 °F35.6 °F66 %29.89 in6.2 miWNW (300°)4.5 mphMostly Cloudy
12:30 PM46.4 °F35.6 °F66 %29.89 in6.2 miNNW (330°)6.7 mphMostly Cloudy
1:00 PM46.0 °F36.0 °F60 %29.89 in12.0 miWNW (300°)11.2 mphScattered Clouds
1:00 PM46.4 °F35.6 °F66 %29.89 in6.2 miNW (310°)8.9 mph15.7 mphMostly Cloudy
1:30 PM46.4 °F33.8 °F62 %29.86 in6.2 miWNW (300°)13.4 mph20.1 mphMostly Cloudy
2:00 PM46.4 °F33.8 °F62 %29.86 in6.2 miNW (310°)13.4 mph20.1 mphMostly Cloudy
2:30 PM46.4 °F35.6 °F66 %29.86 in6.2 miWNW (300°)13.4 mph20.1 mphMostly Cloudy
3:00 PM46.4 °F33.8 °F62 %29.83 in6.2 miNW (310°)11.2 mphMostly Cloudy
3:30 PM46.4 °F28.4 °F50 %29.83 in6.2 miWNW (300°)15.7 mphMostly Cloudy
4:00 PM48.0 °F30.0 °F37 %29.85 in6.0 miNW (310°)13.4 mphScattered Clouds
4:00 PM48.2 °F30.2 °F50 %29.83 in6.2 miNW (310°)13.4 mph20.1 mphMostly Cloudy
4:30 PM48.2 °F30.2 °F50 %29.83 in6.2 miNW (310°)11.2 mph17.9 mphMostly Cloudy
5:00 PM46.4 °F28.4 °F50 %29.83 in6.2 miNW (310°)13.4 mph20.1 mphMostly Cloudy
5:30 PM46.4 °F30.2 °F53 %29.83 in6.2 miNW (310°)13.4 mph22.4 mphMostly Cloudy
6:00 PM46.4 °F33.8 °F62 %29.83 in6.2 miWNW (300°)13.4 mphMostly Cloudy
6:30 PM46.4 °F33.8 °F62 %29.83 in6.2 miNW (310°)11.2 mph17.9 mphMostly Cloudy
7:00 PM45.0 °F36.0 °F61 %29.84 in2.0 miWNW (300°)13.4 mphOvercast
7:00 PM46.4 °F33.8 °F62 %29.83 in6.2 miNW (310°)8.9 mph15.7 mphMostly Cloudy
7:30 PM44.6 °F33.8 °F66 %29.83 in6.2 miNNW (330°)6.7 mph13.4 mphMostly Cloudy
8:00 PM44.6 °F33.8 °F66 %29.83 in6.2 miNW (320°)6.7 mphMostly Cloudy
8:30 PM44.6 °F33.8 °F66 %29.80 in6.2 miNW (310°)8.9 mph15.7 mphMostly Cloudy
9:00 PM44.6 °F33.8 °F66 %29.80 in6.2 miNW (320°)4.5 mphMostly Cloudy
9:30 PM44.6 °F33.8 °F66 %29.80 in6.2 miNW (310°)4.5 mphOvercast
10:00 PM45.0 °F35.0 °F57 %29.83 in2.0 miNW (320°)4.5 mphOvercast
10:00 PM44.6 °F33.8 °F66 %29.80 in6.2 miWNW (300°)4.5 mphOvercast
10:30 PM44.6 °F33.8 °F66 %29.83 in6.2 miNW (320°)4.5 mphOvercast
11:00 PM44.6 °F33.8 °F66 %29.83 in6.2 miNNW (330°)6.7 mphOvercast
11:30 PM44.6 °F33.8 °F66 %29.83 in6.2 miNNW (340°)6.7 mphOvercast
Hourly data recorded from URSS, located miles away from Sochi, Russia







STORIES FROM OUR PARTNERS